[[{"header":{"parameterUnit":"m.s-1","parameterCategory":1,"la1":30.2991,"la2":30.254,"lo1":-89.0895,"lo2":-89.0444,"dy":0.0017,"dx":0.0017,"nx":28,"ny":28,"refTime":"2025-08-08T21:00:00:Z","depth":0,"parameterNumber":2,"parameterNumberName":"U-component_of_WINDS"},"data":[0,0,0,0,0,0,0,0,0,0,0,0,0,0,0,0,0,0,0,0,0,0,0,0,0,0,0,0,0,0,0,0,0,0,0,0,0,0,0,0,0,0,0,0,0,0,0,0,0,0,0,0,0,0,0,0,0,0,-3.6539,-3.654,0,-3.6575,-3.6575,-3.6576,-3.6478,-3.6475,-3.6472,-3.6469,-3.6504,-3.6508,-3.6511,0,0,0,0,0,0,0,0,0,0,0,0,0,-3.6385,-3.6389,-3.6539,-3.654,-3.654,-3.6575,-3.6575,-3.6576,-3.6479,-3.6475,-3.6472,-3.6468,-3.6503,-3.6507,-3.6512,0,0,0,0,0,0,0,0,0,0,0,0,0,-3.644,-3.639,-3.6539,-3.6496,-3.6493,-3.6575,-3.6575,-3.6576,-3.648,-3.6475,-3.6471,-3.6466,-3.6501,-3.6507,-3.6512,-3.6638,0,0,-3.653,-3.6532,0,0,0,0,0,0,0,0,-3.6437,-3.6445,-3.6502,-3.6499,-3.6495,-3.6518,-3.6534,-3.6597,-3.6481,-3.6485,-3.6469,-3.6464,-3.6512,-3.6517,-3.6533,-3.6639,-3.6641,-3.653,-3.6533,-3.6536,-3.6537,0,0,0,0,0,0,0,-3.6433,-3.6443,-3.6553,-3.6503,-3.6499,-3.6474,-3.6477,-3.6545,-3.6523,-3.6484,-3.6477,-3.6483,-3.6509,-3.6528,-3.6533,-3.6641,-3.653,-3.6535,-3.6538,-3.654,-3.685,-3.6854,0,0,0,0,0,0,-3.6435,-3.6441,-3.6552,-3.6554,-3.6454,-3.6481,-3.6484,-3.6515,-3.6522,-3.6519,-3.6486,-3.6478,-3.6521,-3.6527,-3.6534,-3.6679,-3.6536,-3.6541,-3.6544,-3.6845,-3.6851,-3.6856,0,0,0,0,0,0,-3.6432,-3.6446,-3.6551,-3.6496,-3.6507,-3.6488,-3.6524,-3.6518,-3.6536,-3.6524,-3.6519,-3.6509,-3.6517,-3.6526,-3.6612,-3.6679,-3.6544,-3.6549,-3.6839,-3.6847,-3.6854,-3.6972,0,0,0,0,0,0,-3.6428,-3.6446,-3.6493,-3.6498,-3.6511,-3.6629,-3.6528,-3.6522,-3.6547,-3.6536,-3.6545,-3.6542,-3.6514,-3.6604,-3.6618,-3.6684,-3.6553,-3.6833,-3.6843,-3.6851,-3.6962,-3.6983,-3.7,0,0,0,0,0,-3.6423,-3.6525,-3.6496,-3.651,-3.657,-3.6633,-3.6641,-3.6608,-3.6553,-3.66,-3.6592,-3.6541,-3.667,-3.6614,-3.6628,-3.6698,-3.6829,-3.684,-3.6851,-3.6954,-3.6979,-3.7,0,0,0,0,0,0,-3.6529,-3.6525,-3.6493,-3.66,-3.6618,-3.6617,-3.6675,-3.6636,-3.6669,-3.6658,-3.6615,-3.6618,-3.6711,-3.6713,-3.6651,-3.6818,-3.674,-3.6754,-3.6813,-3.6837,-3.6856,-3.6852,-3.6558,0,0,0,0,0,-3.6565,-3.6617,-3.6611,-3.6706,-3.6716,-3.6695,-3.6721,-3.6695,-3.6711,-3.6718,-3.6716,-3.6734,-3.6778,-3.6808,-3.6848,-3.6963,-3.6962,-3.7017,-3.7037,-3.7052,-3.7064,-3.7123,-3.7147,-3.6892,-3.6892,-3.6892,0,0,-3.6639,-3.6643,-3.6679,-3.6727,-3.6738,-3.6792,-3.6702,-3.6763,-3.6803,-3.6727,-3.6808,-3.6808,-3.6824,-3.6925,-3.6969,-3.6929,-3.7135,-3.7066,-3.7079,-3.7082,-3.7137,-3.7161,-3.7183,-3.6899,-3.6898,-3.6897,0,0,-3.6801,-3.6811,-3.689,-3.6903,-3.6921,-3.6906,-3.6925,-3.6931,-3.6927,-3.7008,-3.6952,-3.6999,-3.7076,-3.709,-3.7107,-3.7276,-3.723,-3.729,-3.7388,-3.7447,-3.7467,-3.7484,-3.7542,-3.7564,-3.7303,-3.7303,-3.7303,0,-3.6891,-3.6971,-3.6936,-3.7001,-3.7023,-3.6958,-3.7037,-3.7052,-3.7082,-3.7098,-3.7053,-3.7149,-3.7156,-3.7258,-3.7299,-3.7316,-3.7335,-3.7288,-3.7467,-3.7484,-3.75,-3.7555,-3.7577,-3.731,-3.7309,-3.7309,-3.7308,0,-3.708,-3.7136,-3.7198,-3.7229,-3.7258,-3.733,-3.7305,-3.7339,-3.731,-3.73,-3.7382,-3.7388,-3.7428,-3.7451,-3.7423,-3.7549,-3.7523,-3.7474,-3.7394,-3.7532,-3.7583,-3.7604,-3.732,-3.7318,-3.7315,-3.7314,0,0,-3.7308,-3.7319,-3.7342,-3.7355,-3.737,-3.7412,-3.7481,-3.7521,-3.755,-3.7573,-3.7628,-3.7696,-3.765,-3.767,-3.7643,-3.7695,-3.7825,-3.7638,-3.7638,-3.7671,-3.7962,-3.7998,-3.8023,-3.7796,-3.78,-3.7803,-3.796,0,-3.7467,-3.7585,-3.7555,-3.7672,-3.7723,-3.7663,-3.7722,-3.7738,-3.773,-3.7772,-3.7763,-3.7811,-3.7748,-3.7759,-3.7807,-3.7799,-3.7883,-3.7788,-3.7846,-3.7848,-3.7841,-3.805,-3.8088,-3.8236,-3.798,-3.7984,-3.7986,0,-3.7667,-3.7698,-3.7821,-3.7827,-3.7847,-3.7901,-3.7934,-3.7975,-3.7991,-3.7982,-3.8005,-3.7968,-3.8035,-3.7956,-3.8047,-3.7983,-3.8005,-3.8005,-3.801,-3.8012,-3.7924,-3.8056,-3.8283,-3.8304,-3.8017,-3.8015,-3.8013,0,-3.7819,-3.7892,-3.7974,-3.7987,-3.7997,-3.8036,-3.8042,-3.8053,-3.8078,-3.8108,-3.8123,-3.816,-3.818,-3.8209,-3.8183,-3.8128,-3.8277,-3.8197,-3.827,-3.8271,-3.8302,-3.83,-3.8533,-3.8321,-3.832,-3.832,-3.8319,0,-3.7998,-3.8075,-3.8042,-3.8092,-3.8176,-3.8141,-3.8225,-3.8224,-3.8235,-3.8283,-3.8234,-3.828,-3.8243,-3.8286,-3.8267,-3.8344,-3.8354,-3.8347,-3.834,-3.835,-3.8351,-3.8362,-3.8351,-3.8326,-3.8324,-3.8323,-3.8322,0,-3.8181,-3.8162,-3.8247,-3.825,-3.8252,-3.8314,-3.8315,-3.8361,-3.8351,-3.8412,-3.8425,-3.8408,-3.8456,-3.8433,-3.8483,-3.847,-3.8569,-3.855,-3.8564,-3.8558,-3.8632,-3.8624,-3.8879,-3.891,-3.8679,-3.8681,-3.8683,0,-3.8295,-3.8353,-3.8361,-3.839,-3.84,-3.8447,-3.8473,-3.8441,-3.847,-3.8492,-3.8536,-3.858,-3.8612,-3.8692,-3.8683,-3.8721,-3.8701,-3.8788,-3.8706,-3.8714,-3.87,-3.8696,-3.8701,-3.8804,-3.8806,-3.8808,-3.881,0,-3.8499,-3.8487,-3.8526,-3.8563,-3.8595,-3.8622,-3.8644,-3.8671,-3.864,-3.8675,-3.8723,-3.8749,-3.88,-3.8844,-3.8877,-3.8882,-3.8841,-3.8836,-3.8855,-3.8864,-3.8869,-3.8866,-3.8606,-3.883,-3.8828,-3.8827,-3.8826,-3.8825,-3.865,-3.8698,-3.8711,-3.8756,-3.877,-3.8792,-3.8835,-3.883,-3.8871,-3.891,-3.8889,-3.8945,-3.8959,-3.8999,-3.901,-3.9053,-3.9019,-3.9046,-3.9053,-3.9059,-3.9068,-3.8865,-3.9059,-3.9059,-3.9058,-3.9058,-3.9057,0,-3.885,-3.8855,-3.8898,-3.8931,-3.8966,-3.8926,-3.8948,-3.898,-3.9031,-3.9048,-3.9081,-3.9137,-3.9179,-3.9175,-3.9213,-3.9248,-3.923,-3.9259,-3.9255,-3.9257,-3.9098,-3.9077,-3.9273,-3.9273,-3.9273,-3.9273,-3.9273,-3.9273,-3.8958,-3.9036,-3.9026,-3.911,-3.9115,-3.917,-3.9186,-3.9206,-3.9219,-3.9284,-3.9319,-3.9316,-3.9324,-3.9362,-3.9399,-3.9396,-3.9412,-3.9447,-3.9438,-3.9289,-3.9268,-3.9247,-3.9227,-3.9452,-3.9452,-3.9592,-3.9594,-3.9595]},{"header":{"parameterUnit":"m.s-1","parameterCategory":1,"la1":30.2991,"la2":30.254,"lo1":-89.0895,"lo2":-89.0444,"dy":0.0017,"dx":0.0017,"nx":28,"ny":28,"refTime":"2025-08-08T21:00:00:Z","depth":0,"parameterNumber":3,"parameterNumberName":"V-component_of_WINDS"},"data":[0,0,0,0,0,0,0,0,0,0,0,0,0,0,0,0,0,0,0,0,0,0,0,0,0,0,0,0,0,0,0,0,0,0,0,0,0,0,0,0,0,0,0,0,0,0,0,0,0,0,0,0,0,0,0,0,0,0,0.9984,0.9984,0,0.9934,0.9934,0.9933,0.9897,0.9897,0.9897,0.9896,0.9841,0.984,0.9839,0,0,0,0,0,0,0,0,0,0,0,0,0,1.0046,1.0045,0.9984,0.9984,0.9983,0.9934,0.9934,0.9933,0.9897,0.9897,0.9896,0.9896,0.9842,0.984,0.9839,0,0,0,0,0,0,0,0,0,0,0,0,0,1.001,1.0044,0.9984,0.9959,0.9957,0.9934,0.9934,0.9933,0.9897,0.9897,0.9896,0.9896,0.9842,0.984,0.9839,0.9836,0,0,0.9833,0.9832,0,0,0,0,0,0,0,0,1.0012,1.0007,0.9964,0.9961,0.9958,0.9922,0.9935,0.99,0.9897,0.992,0.9896,0.9896,0.9868,0.9864,0.9856,0.9833,0.9831,0.9833,0.9832,0.9831,0.9831,0,0,0,0,0,0,0,1.0014,1.0009,0.9964,0.9963,0.996,0.995,0.9944,0.9928,0.9897,0.9918,0.9915,0.991,0.9866,0.9857,0.9854,0.983,0.9833,0.9831,0.983,0.983,0.9803,0.9804,0,0,0,0,0,0,1.0021,1.0012,0.9966,0.9963,0.9984,0.9949,0.9943,0.9934,0.9897,0.9891,0.991,0.9908,0.9861,0.9856,0.9852,0.9846,0.9831,0.9829,0.9828,0.9803,0.9803,0.9804,0,0,0,0,0,0,1.0023,1.0017,0.9968,0.9987,0.9979,0.9948,0.9938,0.9933,0.9924,0.9891,0.9885,0.9907,0.986,0.9854,0.984,0.9844,0.9829,0.9827,0.9802,0.9803,0.9803,0.9835,0,0,0,0,0,0,1.0025,1.0018,1.0018,0.9987,0.9979,0.9958,0.9939,0.9932,0.9921,0.9918,0.9887,0.9881,0.9859,0.9843,0.9839,0.9841,0.9826,0.9802,0.9803,0.9803,0.9833,0.9836,0.9839,0,0,0,0,0,1.0027,1.0028,1.0018,1.0012,0.9977,0.9959,0.9954,0.993,0.9922,0.992,0.9899,0.9882,0.9844,0.9842,0.9837,0.9838,0.9802,0.9802,0.9803,0.9832,0.9836,0.9839,0,0,0,0,0,0,1.0058,1.0023,1.0012,1.0003,0.9984,0.9953,0.995,0.9935,0.9917,0.9915,0.9885,0.9878,0.9867,0.9851,0.985,0.9834,0.9821,0.9821,0.9845,0.9848,0.9851,0.9854,0.9824,0,0,0,0,0,1.0064,1.0053,1.0023,1.0018,1.0009,0.9981,0.9972,0.9956,0.9935,0.9926,0.9904,0.9884,0.9867,0.9857,0.984,0.9831,0.9823,0.983,0.9833,0.9835,0.9835,0.9829,0.9831,0.9806,0.9806,0.9806,0,0,1.0076,1.0056,1.005,1.0023,1.0007,0.9995,0.9975,0.9963,0.9953,0.9924,0.991,0.9893,0.9868,0.9857,0.9851,0.9843,0.984,0.9836,0.9838,0.9837,0.983,0.9832,0.9834,0.9807,0.9807,0.9807,0,0,1.0092,1.0076,1.0069,1.0054,1.003,1.0012,1.001,0.9981,0.9969,0.9955,0.9933,0.992,0.9893,0.9876,0.9863,0.9874,0.9856,0.9869,0.9883,0.9878,0.9879,0.9881,0.9884,0.9885,0.9869,0.9869,0.9869,0,1.0109,1.0091,1.0068,1.0058,1.0046,1.0021,1.0014,0.9999,0.9971,0.9963,0.9955,0.992,0.9901,0.9886,0.9888,0.988,0.9876,0.9872,0.9881,0.9883,0.9884,0.9886,0.9887,0.9871,0.9871,0.987,0.987,0,1.0113,1.0101,1.0099,1.0074,1.0062,1.0053,1.0028,1.0019,1.0004,0.9986,0.9971,0.9948,0.9926,0.9921,0.9906,0.9903,0.9899,0.9887,0.9873,0.9888,0.989,0.989,0.9873,0.9872,0.9872,0.9872,0,0,1.0146,1.0108,1.0108,1.0096,1.0068,1.0058,1.0048,1.0028,1.002,1.0001,0.9991,0.9969,0.9958,0.9944,0.9926,0.9922,0.993,0.991,0.9909,0.9914,0.9925,0.9934,0.9936,0.992,0.992,0.992,0.9927,0,1.0156,1.0138,1.0117,1.0106,1.0094,1.007,1.0062,1.0043,1.0027,1.0013,0.9994,0.9979,0.9966,0.9957,0.9951,0.9931,0.9932,0.993,0.9909,0.9908,0.9915,0.9937,0.9946,0.9954,0.9928,0.9928,0.9928,0,1.0166,1.015,1.0138,1.0111,1.0105,1.0098,1.0078,1.0066,1.0044,1.0032,1.0018,0.9999,0.9987,0.9975,0.9957,0.9956,0.9946,0.9935,0.9934,0.9931,0.9918,0.9932,0.9956,0.9957,0.9929,0.9929,0.9929,0,1.019,1.0165,1.0154,1.0145,1.0114,1.0109,1.0096,1.0074,1.0063,1.0045,1.0038,1.0018,1.0007,0.9992,0.9969,0.9963,0.9953,0.9939,0.9941,0.9942,0.9939,0.994,0.9961,0.9935,0.9935,0.9935,0.9935,0,1.0203,1.0196,1.0165,1.0158,1.015,1.0126,1.0118,1.0102,1.0083,1.0072,1.005,1.004,1.0011,0.9997,0.9979,0.9966,0.9961,0.995,0.9945,0.9952,0.9953,0.9944,0.9943,0.9935,0.9935,0.9935,0.9935,0,1.0228,1.0207,1.0194,1.0166,1.0159,1.0154,1.0129,1.0121,1.0104,1.0091,1.0086,1.0059,1.0042,1.0017,0.9992,0.998,0.9969,0.9962,0.9977,0.9974,0.9977,0.9977,0.9992,0.9993,0.9968,0.9968,0.9968,0,1.0237,1.0232,1.0204,1.0196,1.0183,1.017,1.016,1.0136,1.0125,1.0101,1.0096,1.0077,1.0061,1.0035,1.0012,0.9992,0.9984,0.999,0.998,0.9987,0.9983,0.9983,0.9982,0.9992,0.9993,0.9993,0.9993,0,1.0256,1.0246,1.0232,1.0214,1.0202,1.0187,1.0171,1.0165,1.0137,1.0127,1.011,1.0097,1.0073,1.0054,1.0032,1.0017,1.0,0.9997,0.9996,1.0002,1.0011,1.0005,0.9983,0.9996,0.9996,0.9996,0.9996,0.9996,1.0272,1.0266,1.0246,1.0231,1.0216,1.0202,1.0193,1.0176,1.0161,1.014,1.0127,1.011,1.0089,1.0057,1.0043,1.0029,1.0022,1.0022,1.0021,1.0021,1.0023,1.0014,1.0025,1.0025,1.0025,1.0025,1.0025,0,1.0289,1.0275,1.0262,1.024,1.0228,1.0216,1.0197,1.0187,1.0174,1.0155,1.014,1.0121,1.0103,1.0079,1.0059,1.0053,1.0045,1.0048,1.0048,1.0044,1.0031,1.0033,1.0055,1.0055,1.0055,1.0055,1.0055,1.0055,1.0296,1.0285,1.0273,1.0254,1.024,1.0225,1.0215,1.0201,1.0186,1.0166,1.0152,1.0137,1.0116,1.0095,1.0078,1.0071,1.0064,1.007,1.0061,1.0048,1.0045,1.0043,1.0045,1.0069,1.0069,1.0076,1.0076,1.0076]}]]